SCP
0 0 0 0 0 0 0 0 0 0 0 0 0 0 0 0 0 0 0 0 0 0 0 -0 0 0 0 -0 -0 -0 -0 -0 -0 -0 -0 -0 -0 -0 -0 -0 -0 -0 -0 -0 -0 -0 -0 -0 -0
0 0 0 0 0 0 0 0 0 0 0 0 0 0 0 1 0 0 0 0 0 0 0 0 0 0 0 0 0 -0 -0 -0 -0 -0 -0 -0 -0 -0 -0 -0 -0 -0 -0 -0 -0 -0 -0 -0 -0
0 0 0 0 0 0 0 0 0 0 0 0 0 0 1 1 0 0 0 0 0 1 1 0 0 0 0 0 0 0 0 0 0 -0 -0 -0 -0 -0 -0 -0 -0 -0 -0 -0 -0 -0 -0 -0 -0
0 0 0 0 0 0 0 0 0 0 0 0 0 0 1 0 0 0 0 0 1 1 1 1 0 0 1 1 0 0 0 0 0 0 0 -0 -0 -0 -0 -0 -0 -0 -0 -0 -0 -0 -0 -0 -0
0 0 0 0 0 0 0 0 0 0 0 0 0 0 1 0 0 0 0 0 1 1 1 1 0 0 1 1 1 0 0 0 0 0 0 0 0 -0 -0 -0 -0 -0 -0 -0 -0 -0 -0 -0 -0
0 0 0 0 0 0 0 0 0 0 0 0 0 0 1 0 0 0 0 1 0 1 1 1 1 1 1 1 1 0 0 0 0 0 0 0 0 0 -0 -0 -0 -0 -0 -0 -0 -0 -0 -0 -0
0 0 0 0 0 0 0 0 0 0 0 0 0 0 0 0 0 0 0 1 1 1 2 1 1 1 0 1 1 1 0 0 0 0 0 0 0 0 0 0 -0 -0 -0 -0 -0 -0 -0 -0 -0
0 0 0 0 0 0 0 0 0 0 0 0 0 0 0 0 0 0 0 1 1 1 0 0 0 0 0 0 0 1 1 1 0 0 0 0 0 0 0 0 0 -0 -0 -0 -0 -0 -0 -0 -0
0 0 0 0 0 0 0 0 0 0 0 0 0 0 0 0 0 1 1 1 1 1 0 0 0 0 0 0 0 0 1 1 1 1 0 0 0 0 0 0 0 0 -0 -0 -0 -0 -0 -0 -0
0 0 0 0 0 0 0 0 0 0 0 0 0 0 0 0 0 0 0 0 0 1 0 0 0 0 0 0 0 0 0 1 0 1 0 0 0 0 0 0 0 0 0 -0 -0 -0 -0 0 0
0 0 0 0 0 0 0 0 0 0 0 0 0 0 0 0 0 0 0 0 0 0 0 0 0 0 0 0 0 -0 -0 0 0 0 0 0 0 0 0 0 0 0 0 0 0 0 0 0 0
0 0 0 0 0 0 0 0 0 0 0 0 0 0 0 0 0 0 0 0 0 0 0 0 0 0 0 0 0 0 -0 0 0 0 0 0 0 0 0 0 0 0 0 0 0 0 0 0 0
0 0 0 0 0 0 0 0 0 0 0 0 0 0 0 0 0 0 0 0 0 0 0 0 0 0 0 0 0 0 0 0 0 0 0 0 0 0 0 0 0 0 0 0 0 0 0 0 0
0 0 0 0 0 0 0 0 0 0 0 0 0 0 0 0 0 0 0 0 0 0 0 0 0 0 0 0 0 0 0 1 0 0 0 0 0 0 0 0 0 0 0 0 0 0 0 0 0
0 0 0 0 0 0 0 0 0 0 0 0 0 0 0 0 0 0 0 0 0 0 0 0 0 0 0 0 0 0 0 0 0 0 0 0 0 0 0 0 0 0 0 0 0 0 0 0 0
0 0 0 0 0 0 0 0 0 0 0 0 0 0 0 0 0 0 0 0 0 0 0 0 0 0 0 0 0 0 0 0 0 0 0 0 0 0 0 0 0 0 0 0 0 0 0 0 0
0 0 0 0 0 0 0 0 0 0 0 0 0 0 0 0 0 0 0 0 0 0 0 0 0 0 0 0 0 0 0 0 0 0 0 0 0 0 0 0 0 0 0 0 0 0 0 0 0
0 0 0 0 0 0 0 0 0 0 0 0 0 0 -0 -0 0 0 0 0 0 0 0 0 0 0 0 0 0 0 0 0 0 0 0 0 0 0 0 0 0 0 0 0 0 0 0 0 0
0 0 0 0 0 0 0 0 0 0 0 0 0 0 0 0 0 0 0 0 0 0 0 0 0 0 0 0 0 -0 0 0 0 0 0 0 0 0 0 0 0 0 0 0 0 0 0 0 0
0 0 0 0 0 0 0 0 0 0 0 0 0 0 0 0 0 0 0 0 0 0 0 0 0 0 0 0 0 -0 -0 0 0 0 0 0 0 0 0 0 0 0 0 0 0 0 0 0 0
0 0 0 0 0 0 0 0 0 0 0 0 0 0 0 0 0 0 0 0 0 0 0 0 0 0 0 0 0 0 0 0 0 0 0 0 0 0 0 0 0 0 0 0 0 0 0 0 0
0 0 0 0 0 0 0 0 0 0 0 0 0 0 0 0 0 -0 0 0 0 0 0 0 0 0 0 0 0 0 0 0 0 0 0 0 0 0 0 0 0 0 0 0 0 0 0 0 0
0 0 0 0 0 0 0 0 0 0 0 0 0 0 0 0 0 0 0 0 0 0 0 0 0 0 0 0 0 0 0 0 0 0 0 0 0 0 0 0 0 0 0 0 0 0 0 0 0
0 0 0 0 0 0 0 0 0 0 0 0 0 0 0 0 0 0 0 0 -0 0 0 0 0 0 0 0 0 0 0 0 0 0 0 0 0 0 0 0 0 0 0 0 0 0 0 0 0
0 0 0 0 0 0 0 0 0 0 0 0 0 0 0 0 0 -0 0 0 -0 0 0 0 0 0 0 0 0 0 0 0 0 0 0 0 0 0 0 0 0 0 0 0 0 0 0 0 0
0 0 0 0 0 0 0 0 0 0 0 0 0 0 0 0 0 0 0 0 0 0 0 0 0 -0 0 0 0 0 0 0 0 0 0 0 0 0 0 0 0 0 0 0 0 0 0 0 0
0 0 0 0 0 0 0 0 0 0 0 0 0 0 0 0 0 0 -0 0 0 0 0 0 0 0 0 0 0 0 0 0 0 0 0 0 0 0 0 0 0 0 0 0 0 0 0 0 0
0 0 0 0 0 0 0 0 0 0 0 0 0 0 0 0 0 -0 0 -0 -0 0 0 0 0 0 0 0 0 0 0 0 0 0 0 0 0 0 0 0 0 0 0 0 0 0 0 0 0
0 0 0 0 0 0 0 0 0 0 0 0 0 0 0 0 0 -0 -0 -0 -0 0 0 0 0 0 0 0 0 0 0 0 0 0 0 0 0 0 0 0 0 0 0 0 0 0 0 0 0
0 0 0 0 0 0 0 0 0 0 0 0 0 0 0 0 0 0 0 -0 0 -0 -0 -0 -0 -0 0 0 0 0 0 0 0 0 0 0 0 0 0 0 0 0 0 0 0 0 0 0 0
Wind_Speed_500mb
7 10 3 2 7 8 6 8 3 12 15 11 51 18 7 5 2 7 19 19 31 50 59 54 49 48 47 46 38 35 31 29 31 34 34 26 22 25 30 35 35 32 32 29 27 29 25 28 32
12 14 5 3 8 4 9 6 9 10 31 47 15 2 7 3 8 4 10 13 34 46 58 53 50 46 45 41 40 35 31 29 31 32 33 26 22 27 27 32 34 35 31 31 27 26 26 30 29
19 16 4 6 6 8 7 2 12 25 32 20 13 12 5 6 10 10 10 2 39 47 54 53 49 46 42 40 40 34 31 29 31 34 30 26 24 28 26 28 37 35 31 33 29 29 28 29 31
15 8 8 6 7 8 5 11 14 25 16 26 23 4 6 10 2 6 3 6 30 47 51 53 48 45 44 42 41 35 31 30 30 34 30 27 25 27 26 25 32 36 31 35 30 32 30 29 31
15 7 7 2 7 8 6 11 16 11 14 23 19 12 8 8 6 5 3 10 21 41 47 42 46 45 43 41 41 34 34 31 30 33 31 27 26 27 25 24 28 37 32 35 30 29 29 30 30
7 6 7 5 8 7 10 16 12 10 12 23 15 18 9 13 8 5 9 11 18 29 42 35 40 41 41 41 41 35 34 33 31 37 31 26 28 27 26 23 24 28 33 38 28 29 29 28 31
10 7 8 6 5 6 4 17 4 10 11 12 15 7 9 19 11 1 8 14 22 31 42 41 39 38 38 39 40 36 37 34 33 37 36 33 31 27 26 23 24 30 28 33 26 24 31 36 30
8 8 6 5 3 6 5 12 8 6 6 18 12 3 7 21 8 6 7 16 22 30 41 49 47 46 44 41 37 37 38 38 35 38 38 36 35 29 27 23 27 31 30 33 28 26 34 35 32
6 8 4 7 9 8 7 3 2 7 8 18 6 13 19 13 5 12 15 17 21 28 36 51 53 51 49 48 41 35 41 44 41 44 39 40 37 32 29 24 28 34 34 34 28 29 31 29 26
8 6 13 10 7 8 9 5 12 3 17 8 23 14 16 13 11 13 22 24 19 27 31 44 51 49 53 50 45 42 47 51 49 50 47 47 44 34 30 25 28 38 31 33 29 25 19 15 17
7 9 8 11 25 17 5 7 5 7 8 13 23 19 9 10 16 19 19 28 38 36 33 37 41 42 52 52 49 67 70 64 55 56 52 50 48 38 34 29 32 45 38 37 30 24 17 16 23
3 12 11 9 11 6 6 6 6 10 6 18 13 13 13 9 7 8 17 23 28 30 35 43 46 46 32 49 69 80 83 62 59 59 56 55 48 43 37 31 34 47 41 35 30 27 25 28 32
6 7 10 22 23 23 14 8 6 12 3 9 13 12 15 12 9 9 10 13 25 37 37 42 43 40 39 50 83 78 81 71 62 61 60 56 50 46 37 35 38 47 44 37 36 31 28 31 36
6 13 23 15 13 9 10 5 15 6 3 8 16 21 18 19 18 16 13 12 11 20 38 44 43 40 30 32 35 25 79 79 65 65 60 54 50 46 38 38 44 51 45 40 35 33 30 31 34
7 9 13 3 9 2 13 3 9 2 2 9 19 24 25 25 23 21 20 17 20 20 26 41 49 38 34 25 26 22 52 67 66 63 59 55 52 45 38 40 49 54 51 43 38 37 33 33 35
7 8 8 7 8 2 6 14 8 4 3 8 21 31 40 40 37 35 25 24 20 26 27 39 45 35 21 20 31 50 39 23 61 60 57 54 52 45 39 43 56 60 54 45 39 42 39 34 33
11 3 5 15 6 5 8 11 8 7 2 11 23 38 49 52 44 38 34 28 24 28 32 36 42 44 22 15 17 28 32 22 58 57 53 54 52 47 37 49 64 61 53 47 41 45 38 38 36
7 4 7 10 8 2 7 17 9 11 4 10 25 43 48 49 51 44 33 22 26 29 33 38 44 44 40 26 23 20 34 35 63 53 54 57 55 48 41 54 66 59 53 48 44 43 45 38 37
5 5 10 10 10 6 6 13 12 11 7 9 27 48 49 48 48 40 33 15 20 24 31 45 45 44 51 40 24 18 29 46 53 54 57 61 56 49 46 58 61 56 54 52 47 50 49 46 40
7 7 11 10 6 1 10 17 9 6 3 10 34 41 44 50 55 47 33 8 12 20 35 41 39 35 42 44 29 41 34 29 48 54 58 58 58 49 49 53 47 48 49 52 47 52 58 49 46
6 9 7 10 10 0 11 12 6 4 4 11 36 32 33 43 54 47 20 1 8 31 38 38 40 40 37 39 40 44 47 44 46 58 60 65 60 59 49 50 48 40 47 53 49 50 53 53 51
6 6 7 5 7 4 6 9 8 4 11 8 33 34 42 50 40 31 13 5 16 28 37 41 41 44 36 37 42 58 49 58 61 59 57 51 56 64 61 45 57 49 39 51 49 46 45 42 47
12 2 1 2 4 5 4 4 12 6 9 12 28 36 41 49 35 33 16 8 12 24 27 27 30 28 24 28 31 33 35 47 54 54 26 42 44 41 63 52 56 53 49 49 49 47 47 44 40
7 5 9 7 4 4 4 7 10 5 5 8 18 36 42 46 40 39 32 22 25 19 19 19 17 19 18 16 18 24 32 34 41 34 31 42 51 63 48 53 60 54 52 48 47 48 50 48 49
7 9 6 8 6 9 2 4 16 5 4 5 12 30 31 40 40 34 31 29 24 24 21 22 21 23 18 14 19 26 32 33 34 39 46 51 54 60 64 63 51 51 49 49 52 55 55 54 53
5 11 10 10 4 9 7 8 9 2 8 5 11 18 20 25 31 31 29 27 23 26 25 22 16 19 15 12 17 15 19 18 28 45 45 45 45 52 46 49 42 50 52 52 56 55 55 53 53
7 5 7 13 4 5 6 12 10 3 6 3 13 12 14 18 20 27 24 23 23 20 19 16 16 18 22 21 24 23 22 19 20 31 38 47 42 42 48 54 55 49 41 46 49 50 49 44 49
7 14 7 5 2 6 8 9 9 8 7 6 5 5 8 10 16 18 19 19 22 19 20 21 20 21 19 15 11 19 26 31 29 26 23 19 22 21 21 28 31 34 35 38 42 43 42 47 39
6 4 9 8 7 7 4 11 12 10 8 9 11 6 3 7 13 19 17 19 20 21 23 23 23 22 25 27 29 24 25 21 22 27 19 14 14 18 21 22 29 39 43 42 42 44 48 49 48
8 12 12 9 9 3 5 11 3 9 11 13 11 12 8 7 13 19 23 25 23 24 27 31 32 32 31 32 32 30 24 20 18 16 13 18 20 18 18 23 27 29 33 36 41 44 45 48 50
Wind_Direction_500mb
198 169 158 311 48 60 277 266 301 353 332 290 309 266 264 61 104 235 321 166 176 181 171 170 180 178 173 169 176 175 165 156 151 146 147 150 131 122 125 145 152 146 138 130 123 113 106 102 96
188 170 147 101 92 70 268 295 9 284 305 320 335 308 31 12 18 24 70 139 170 182 173 173 182 184 177 176 177 179 170 159 155 145 154 155 145 131 125 130 136 133 136 126 123 116 109 105 105
171 160 140 91 115 189 218 348 288 309 335 6 347 14 37 353 25 133 57 188 174 183 178 175 184 188 183 183 182 180 173 165 162 155 160 152 147 137 128 124 128 129 131 129 124 114 109 107 106
142 129 71 97 216 255 235 319 330 338 3 16 354 351 356 352 161 210 29 159 181 182 180 181 187 191 191 190 188 184 181 172 167 164 159 156 148 139 133 127 131 132 137 135 132 123 110 108 107
128 102 68 38 264 268 262 301 345 346 359 354 10 338 339 340 349 135 197 187 196 188 186 185 192 199 197 194 189 191 185 178 170 160 168 167 159 146 138 133 133 144 138 136 135 132 123 112 115
91 91 76 225 249 269 300 340 340 0 359 5 12 344 343 344 359 33 157 182 174 192 195 194 198 201 202 196 193 193 193 184 176 167 175 180 166 154 146 141 140 133 135 133 142 139 131 126 119
115 86 194 198 256 310 269 346 31 340 337 3 354 358 330 341 317 326 171 185 180 190 197 201 204 208 212 204 201 199 200 190 181 174 180 179 171 160 152 147 146 142 138 133 147 140 128 130 135
123 94 139 250 208 261 254 339 328 337 312 346 359 22 326 338 284 270 210 209 201 195 201 204 206 209 203 202 209 209 208 196 187 178 184 179 166 164 158 155 150 147 135 142 148 140 130 132 138
126 67 204 239 181 255 273 359 359 314 294 331 326 328 332 337 302 260 246 235 216 218 207 211 214 211 208 203 200 216 214 205 195 183 189 181 174 168 165 160 158 153 151 147 154 144 137 137 138
102 124 218 216 205 219 276 289 322 343 327 318 315 321 323 295 272 265 248 250 246 227 229 222 222 227 225 208 196 200 221 210 198 191 189 184 182 173 167 166 166 157 161 155 161 148 136 134 141
164 189 208 251 241 251 244 283 357 357 328 333 298 324 330 317 293 280 275 251 246 246 238 234 236 245 263 253 222 255 291 212 199 195 193 188 188 177 176 175 174 161 170 163 159 140 129 129 134
235 244 221 268 249 220 228 285 360 81 37 36 55 80 88 78 35 309 277 258 252 255 234 246 245 246 271 263 251 264 271 203 200 197 194 193 192 183 181 182 182 175 167 165 152 139 122 122 125
190 259 237 257 277 268 239 245 210 110 60 45 58 68 55 47 33 12 358 299 270 249 246 244 243 244 279 267 252 246 233 196 199 197 195 194 190 185 183 182 187 182 172 165 157 145 125 125 126
238 277 286 284 306 255 171 168 162 164 14 37 42 36 18 360 350 327 300 312 297 273 242 243 247 244 268 251 240 252 226 199 200 195 196 193 191 186 185 183 188 184 174 167 161 153 135 130 134
287 327 331 278 324 356 160 203 171 99 302 20 20 16 10 356 339 321 310 296 294 272 252 233 233 247 246 253 255 224 199 187 199 196 192 190 189 188 185 185 187 181 173 171 168 162 150 138 137
43 55 4 279 353 330 147 254 150 126 152 9 14 4 351 342 327 315 301 273 257 263 256 222 227 229 197 239 260 231 247 204 199 200 190 186 187 190 187 187 183 179 177 178 177 173 159 148 140
10 253 267 315 330 223 196 260 153 177 190 13 3 355 346 332 325 315 300 274 246 241 245 212 215 211 192 239 232 222 236 230 204 203 194 183 187 188 193 185 183 183 184 180 177 176 173 159 148
245 293 268 249 283 255 253 262 217 213 259 360 356 351 346 338 326 321 314 265 246 246 232 205 201 202 203 229 196 204 216 204 206 201 197 189 187 186 184 183 185 187 191 190 187 185 179 170 158
178 208 249 253 258 293 253 280 245 216 277 346 349 353 343 337 331 329 321 275 240 250 204 193 193 201 209 219 200 208 194 172 187 198 201 198 193 185 183 184 189 197 199 198 192 188 182 175 169
207 243 263 284 256 236 319 282 257 222 251 58 8 347 339 332 330 326 330 255 232 190 176 184 197 206 219 221 182 156 157 174 187 199 207 210 202 192 176 185 189 201 200 197 191 189 183 184 179
235 207 233 230 327 278 339 299 346 322 87 34 6 356 339 339 334 332 341 251 170 162 173 184 199 202 206 213 202 186 204 200 202 199 210 217 208 186 188 182 189 198 204 202 196 193 195 190 186
276 223 242 276 35 258 40 287 303 294 316 48 353 357 353 351 352 345 13 124 141 159 166 178 184 194 205 211 219 214 215 209 206 208 217 218 199 190 193 186 202 202 206 208 204 204 210 213 202
220 29 310 283 180 38 339 67 268 358 326 15 337 348 356 9 17 17 48 45 117 144 163 173 169 190 190 199 216 215 223 221 204 202 267 236 220 204 198 200 202 208 208 211 210 211 215 221 227
122 115 47 54 81 8 277 125 282 291 290 346 325 355 6 24 32 51 60 84 109 122 134 148 157 183 184 186 192 214 214 197 185 202 205 201 211 207 210 202 205 209 210 213 215 216 216 221 223
87 63 339 3 10 223 226 69 246 261 154 198 330 352 17 33 41 57 69 61 80 99 103 103 110 120 127 155 180 188 193 203 198 188 184 197 195 198 200 203 193 204 208 210 211 212 216 220 222
168 154 153 211 213 266 302 241 258 175 144 355 15 22 32 47 53 58 69 84 84 91 99 102 104 104 107 114 115 146 187 192 196 189 190 197 213 207 195 199 200 211 212 211 211 214 218 215 213
170 181 157 106 22 32 254 290 301 306 266 66 39 36 35 60 66 84 80 83 88 105 109 113 108 115 103 91 93 105 122 137 175 203 201 190 188 191 207 198 207 205 211 208 209 205 204 199 205
160 155 84 12 128 275 285 275 241 280 279 128 124 49 50 78 88 98 103 100 107 111 104 106 116 120 105 106 110 112 111 127 131 136 148 165 176 193 212 202 199 189 186 194 196 203 213 211 209
141 173 63 116 138 183 287 264 210 215 217 197 166 146 69 79 103 114 115 117 113 107 106 100 108 110 124 115 111 121 131 124 139 149 150 160 183 201 198 199 204 205 206 220 219 218 215 230 234
171 172 152 128 212 169 153 273 321 205 214 196 163 146 145 124 112 119 124 123 123 114 112 111 107 112 127 130 121 131 144 138 134 126 136 130 131 140 157 171 180 186 195 203 212 220 230 241 248
Wind_Speed_850mb
7 10 3 2 7 8 6 8 3 12 15 11 51 18 7 5 2 7 19 19 31 50 59 54 49 48 47 46 38 35 31 29 31 34 34 26 22 25 30 35 35 32 32 29 27 29 25 28 32
12 14 5 3 8 4 9 6 9 10 31 47 15 2 7 3 8 4 10 13 34 46 58 53 50 46 45 41 40 35 31 29 31 32 33 26 22 27 27 32 34 35 31 31 27 26 26 30 29
19 16 4 6 6 8 7 2 12 25 32 20 13 12 5 6 10 10 10 2 39 47 54 53 49 46 42 40 40 34 31 29 31 34 30 26 24 28 26 28 37 35 31 33 29 29 28 29 31
15 8 8 6 7 8 5 11 14 25 16 26 23 4 6 10 2 6 3 6 30 47 51 53 48 45 44 42 41 35 31 30 30 34 30 27 25 27 26 25 32 36 31 35 30 32 30 29 31
15 7 7 2 7 8 6 11 16 11 14 23 19 12 8 8 6 5 3 10 21 41 47 42 46 45 43 41 41 34 34 31 30 33 31 27 26 27 25 24 28 37 32 35 30 29 29 30 30
7 6 7 5 8 7 10 16 12 10 12 23 15 18 9 13 8 5 9 11 18 29 42 35 40 41 41 41 41 35 34 33 31 37 31 26 28 27 26 23 24 28 33 38 28 29 29 28 31
10 7 8 6 5 6 4 17 4 10 11 12 15 7 9 19 11 1 8 14 22 31 42 41 39 38 38 39 40 36 37 34 33 37 36 33 31 27 26 23 24 30 28 33 26 24 31 36 30
8 8 6 5 3 6 5 12 8 6 6 18 12 3 7 21 8 6 7 16 22 30 41 49 47 46 44 41 37 37 38 38 35 38 38 36 35 29 27 23 27 31 30 33 28 26 34 35 32
6 8 4 7 9 8 7 3 2 7 8 18 6 13 19 13 5 12 15 17 21 28 36 51 53 51 49 48 41 35 41 44 41 44 39 40 37 32 29 24 28 34 34 34 28 29 31 29 26
8 6 13 10 7 8 9 5 12 3 17 8 23 14 16 13 11 13 22 24 19 27 31 44 51 49 53 50 45 42 47 51 49 50 47 47 44 34 30 25 28 38 31 33 29 25 19 15 17
7 9 8 11 25 17 5 7 5 7 8 13 23 19 9 10 16 19 19 28 38 36 33 37 41 42 52 52 49 67 70 64 55 56 52 50 48 38 34 29 32 45 38 37 30 24 17 16 23
3 12 11 9 11 6 6 6 6 10 6 18 13 13 13 9 7 8 17 23 28 30 35 43 46 46 32 49 69 80 83 62 59 59 56 55 48 43 37 31 34 47 41 35 30 27 25 28 32
6 7 10 22 23 23 14 8 6 12 3 9 13 12 15 12 9 9 10 13 25 37 37 42 43 40 39 50 83 78 81 71 62 61 60 56 50 46 37 35 38 47 44 37 36 31 28 31 36
6 13 23 15 13 9 10 5 15 6 3 8 16 21 18 19 18 16 13 12 11 20 38 44 43 40 30 32 35 25 79 79 65 65 60 54 50 46 38 38 44 51 45 40 35 33 30 31 34
7 9 13 3 9 2 13 3 9 2 2 9 19 24 25 25 23 21 20 17 20 20 26 41 49 38 34 25 26 22 52 67 66 63 59 55 52 45 38 40 49 54 51 43 38 37 33 33 35
7 8 8 7 8 2 6 14 8 4 3 8 21 31 40 40 37 35 25 24 20 26 27 39 45 35 21 20 31 50 39 23 61 60 57 54 52 45 39 43 56 60 54 45 39 42 39 34 33
11 3 5 15 6 5 8 11 8 7 2 11 23 38 49 52 44 38 34 28 24 28 32 36 42 44 22 15 17 28 32 22 58 57 53 54 52 47 37 49 64 61 53 47 41 45 38 38 36
7 4 7 10 8 2 7 17 9 11 4 10 25 43 48 49 51 44 33 22 26 29 33 38 44 44 40 26 23 20 34 35 63 53 54 57 55 48 41 54 66 59 53 48 44 43 45 38 37
5 5 10 10 10 6 6 13 12 11 7 9 27 48 49 48 48 40 33 15 20 24 31 45 45 44 51 40 24 18 29 46 53 54 57 61 56 49 46 58 61 56 54 52 47 50 49 46 40
7 7 11 10 6 1 10 17 9 6 3 10 34 41 44 50 55 47 33 8 12 20 35 41 39 35 42 44 29 41 34 29 48 54 58 58 58 49 49 53 47 48 49 52 47 52 58 49 46
6 9 7 10 10 0 11 12 6 4 4 11 36 32 33 43 54 47 20 1 8 31 38 38 40 40 37 39 40 44 47 44 46 58 60 65 60 59 49 50 48 40 47 53 49 50 53 53 51
6 6 7 5 7 4 6 9 8 4 11 8 33 34 42 50 40 31 13 5 16 28 37 41 41 44 36 37 42 58 49 58 61 59 57 51 56 64 61 45 57 49 39 51 49 46 45 42 47
12 2 1 2 4 5 4 4 12 6 9 12 28 36 41 49 35 33 16 8 12 24 27 27 30 28 24 28 31 33 35 47 54 54 26 42 44 41 63 52 56 53 49 49 49 47 47 44 40
7 5 9 7 4 4 4 7 10 5 5 8 18 36 42 46 40 39 32 22 25 19 19 19 17 19 18 16 18 24 32 34 41 34 31 42 51 63 48 53 60 54 52 48 47 48 50 48 49
7 9 6 8 6 9 2 4 16 5 4 5 12 30 31 40 40 34 31 29 24 24 21 22 21 23 18 14 19 26 32 33 34 39 46 51 54 60 64 63 51 51 49 49 52 55 55 54 53
5 11 10 10 4 9 7 8 9 2 8 5 11 18 20 25 31 31 29 27 23 26 25 22 16 19 15 12 17 15 19 18 28 45 45 45 45 52 46 49 42 50 52 52 56 55 55 53 53
7 5 7 13 4 5 6 12 10 3 6 3 13 12 14 18 20 27 24 23 23 20 19 16 16 18 22 21 24 23 22 19 20 31 38 47 42 42 48 54 55 49 41 46 49 50 49 44 49
7 14 7 5 2 6 8 9 9 8 7 6 5 5 8 10 16 18 19 19 22 19 20 21 20 21 19 15 11 19 26 31 29 26 23 19 22 21 21 28 31 34 35 38 42 43 42 47 39
6 4 9 8 7 7 4 11 12 10 8 9 11 6 3 7 13 19 17 19 20 21 23 23 23 22 25 27 29 24 25 21 22 27 19 14 14 18 21 22 29 39 43 42 42 44 48 49 48
8 12 12 9 9 3 5 11 3 9 11 13 11 12 8 7 13 19 23 25 23 24 27 31 32 32 31 32 32 30 24 20 18 16 13 18 20 18 18 23 27 29 33 36 41 44 45 48 50
Wind_Direction_850mb
198 169 158 311 48 60 277 266 301 353 332 290 309 266 264 61 104 235 321 166 176 181 171 170 180 178 173 169 176 175 165 156 151 146 147 150 131 122 125 145 152 146 138 130 123 113 106 102 96
188 170 147 101 92 70 268 295 9 284 305 320 335 308 31 12 18 24 70 139 170 182 173 173 182 184 177 176 177 179 170 159 155 145 154 155 145 131 125 130 136 133 136 126 123 116 109 105 105
171 160 140 91 115 189 218 348 288 309 335 6 347 14 37 353 25 133 57 188 174 183 178 175 184 188 183 183 182 180 173 165 162 155 160 152 147 137 128 124 128 129 131 129 124 114 109 107 106
142 129 71 97 216 255 235 319 330 338 3 16 354 351 356 352 161 210 29 159 181 182 180 181 187 191 191 190 188 184 181 172 167 164 159 156 148 139 133 127 131 132 137 135 132 123 110 108 107
128 102 68 38 264 268 262 301 345 346 359 354 10 338 339 340 349 135 197 187 196 188 186 185 192 199 197 194 189 191 185 178 170 160 168 167 159 146 138 133 133 144 138 136 135 132 123 112 115
91 91 76 225 249 269 300 340 340 0 359 5 12 344 343 344 359 33 157 182 174 192 195 194 198 201 202 196 193 193 193 184 176 167 175 180 166 154 146 141 140 133 135 133 142 139 131 126 119
115 86 194 198 256 310 269 346 31 340 337 3 354 358 330 341 317 326 171 185 180 190 197 201 204 208 212 204 201 199 200 190 181 174 180 179 171 160 152 147 146 142 138 133 147 140 128 130 135
123 94 139 250 208 261 254 339 328 337 312 346 359 22 326 338 284 270 210 209 201 195 201 204 206 209 203 202 209 209 208 196 187 178 184 179 166 164 158 155 150 147 135 142 148 140 130 132 138
126 67 204 239 181 255 273 359 359 314 294 331 326 328 332 337 302 260 246 235 216 218 207 211 214 211 208 203 200 216 214 205 195 183 189 181 174 168 165 160 158 153 151 147 154 144 137 137 138
102 124 218 216 205 219 276 289 322 343 327 318 315 321 323 295 272 265 248 250 246 227 229 222 222 227 225 208 196 200 221 210 198 191 189 184 182 173 167 166 166 157 161 155 161 148 136 134 141
164 189 208 251 241 251 244 283 357 357 328 333 298 324 330 317 293 280 275 251 246 246 238 234 236 245 263 253 222 255 291 212 199 195 193 188 188 177 176 175 174 161 170 163 159 140 129 129 134
235 244 221 268 249 220 228 285 360 81 37 36 55 80 88 78 35 309 277 258 252 255 234 246 245 246 271 263 251 264 271 203 200 197 194 193 192 183 181 182 182 175 167 165 152 139 122 122 125
190 259 237 257 277 268 239 245 210 110 60 45 58 68 55 47 33 12 358 299 270 249 246 244 243 244 279 267 252 246 233 196 199 197 195 194 190 185 183 182 187 182 172 165 157 145 125 125 126
238 277 286 284 306 255 171 168 162 164 14 37 42 36 18 360 350 327 300 312 297 273 242 243 247 244 268 251 240 252 226 199 200 195 196 193 191 186 185 183 188 184 174 167 161 153 135 130 134
287 327 331 278 324 356 160 203 171 99 302 20 20 16 10 356 339 321 310 296 294 272 252 233 233 247 246 253 255 224 199 187 199 196 192 190 189 188 185 185 187 181 173 171 168 162 150 138 137
43 55 4 279 353 330 147 254 150 126 152 9 14 4 351 342 327 315 301 273 257 263 256 222 227 229 197 239 260 231 247 204 199 200 190 186 187 190 187 187 183 179 177 178 177 173 159 148 140
10 253 267 315 330 223 196 260 153 177 190 13 3 355 346 332 325 315 300 274 246 241 245 212 215 211 192 239 232 222 236 230 204 203 194 183 187 188 193 185 183 183 184 180 177 176 173 159 148
245 293 268 249 283 255 253 262 217 213 259 360 356 351 346 338 326 321 314 265 246 246 232 205 201 202 203 229 196 204 216 204 206 201 197 189 187 186 184 183 185 187 191 190 187 185 179 170 158
178 208 249 253 258 293 253 280 245 216 277 346 349 353 343 337 331 329 321 275 240 250 204 193 193 201 209 219 200 208 194 172 187 198 201 198 193 185 183 184 189 197 199 198 192 188 182 175 169
207 243 263 284 256 236 319 282 257 222 251 58 8 347 339 332 330 326 330 255 232 190 176 184 197 206 219 221 182 156 157 174 187 199 207 210 202 192 176 185 189 201 200 197 191 189 183 184 179
235 207 233 230 327 278 339 299 346 322 87 34 6 356 339 339 334 332 341 251 170 162 173 184 199 202 206 213 202 186 204 200 202 199 210 217 208 186 188 182 189 198 204 202 196 193 195 190 186
276 223 242 276 35 258 40 287 303 294 316 48 353 357 353 351 352 345 13 124 141 159 166 178 184 194 205 211 219 214 215 209 206 208 217 218 199 190 193 186 202 202 206 208 204 204 210 213 202
220 29 310 283 180 38 339 67 268 358 326 15 337 348 356 9 17 17 48 45 117 144 163 173 169 190 190 199 216 215 223 221 204 202 267 236 220 204 198 200 202 208 208 211 210 211 215 221 227
122 115 47 54 81 8 277 125 282 291 290 346 325 355 6 24 32 51 60 84 109 122 134 148 157 183 184 186 192 214 214 197 185 202 205 201 211 207 210 202 205 209 210 213 215 216 216 221 223
87 63 339 3 10 223 226 69 246 261 154 198 330 352 17 33 41 57 69 61 80 99 103 103 110 120 127 155 180 188 193 203 198 188 184 197 195 198 200 203 193 204 208 210 211 212 216 220 222
168 154 153 211 213 266 302 241 258 175 144 355 15 22 32 47 53 58 69 84 84 91 99 102 104 104 107 114 115 146 187 192 196 189 190 197 213 207 195 199 200 211 212 211 211 214 218 215 213
170 181 157 106 22 32 254 290 301 306 266 66 39 36 35 60 66 84 80 83 88 105 109 113 108 115 103 91 93 105 122 137 175 203 201 190 188 191 207 198 207 205 211 208 209 205 204 199 205
160 155 84 12 128 275 285 275 241 280 279 128 124 49 50 78 88 98 103 100 107 111 104 106 116 120 105 106 110 112 111 127 131 136 148 165 176 193 212 202 199 189 186 194 196 203 213 211 209
141 173 63 116 138 183 287 264 210 215 217 197 166 146 69 79 103 114 115 117 113 107 106 100 108 110 124 115 111 121 131 124 139 149 150 160 183 201 198 199 204 205 206 220 219 218 215 230 234
171 172 152 128 212 169 153 273 321 205 214 196 163 146 145 124 112 119 124 123 123 114 112 111 107 112 127 130 121 131 144 138 134 126 136 130 131 140 157 171 180 186 195 203 212 220 230 241 248